#timestamp,LO_Frequency,Hit,StdDev 
1578231675.7,286046988.5,P
1578231695.5,286046989.2,P
1578231715.4,286046991.5,P
1578231735.2,286046991.2,Y
1578231755.0,286047000.4,P
1578231755.9,286047000.4,N
1578231775.8,286047001.0,N
1578231795.6,286047000.5,N
1578231815.4,286047000.6,N
1578231835.3,286047002.8,N
1578231855.1,286047001.0,N
1578231875.9,286047000.6,N
1578231895.7,286047000.1,N
1578231915.5,286046999.7,N
1578231935.4,286047002.6,N
1578231955.2,286047002.1,N
1578231975.0,286047003.5,N
1578231975.9,286047003.5,N
1578231995.8,286047003.8,N
1578232015.6,286047003.5,N
1578232035.5,286047003.8,N
1578232055.3,286047003.9,N
1578232075.1,286047003.7,N
1578232095.9,286047003.4,N
1578232115.7,286047004.5,N
1578232135.5,286047006.5,N
1578232155.4,286047006.4,N
1578232175.2,286047007.0,N
1578232195.1,286047007.5,N
1578232196.0,286047007.5,N
1578232215.8,286047004.9,N
1578232235.6,286047005.9,N
1578232255.5,286047002.9,N
1578232275.3,286047005.7,N
1578232295.1,286047006.0,N
1578232315.9,286047005.8,N
1578232335.7,286047005.1,N
1578232355.5,286047005.1,N
1578232375.4,286047007.2,Y
1578232395.2,286047003.9,P
1578232415.1,286047004.2,P
1578232416.0,286047004.2,P
1578232435.8,286047002.2,Y
1578232455.6,286046997.3,P
1578232475.5,286046997.2,N
1578232495.3,286046997.3,N
1578232515.2,286046997.6,N
1578232535.9,286046995.2,N
1578232555.7,286046995.8,N
1578232575.6,286046995.9,N
1578232595.4,286046996.0,N
1578232615.2,286046996.0,N
1578232635.1,286046993.4,N
1578232636.0,286046993.4,N
1578232655.8,286046993.4,N
1578232675.7,286046995.6,N
1578232695.5,286046995.7,N
1578232715.3,286046998.0,N
1578232735.2,286046997.3,N
1578232755.9,286046996.9,N
1578232775.7,286046997.7,N
1578232795.6,286046995.7,N
